This is the latest recevied weather packets stored in our database for station/object KN6KS. If no packets are shown the sender has not sent any weather packets the latest 10 day(s).
| Time | Temp. | Humidity | Pressure | Rain* | Wind** | Luminosity | Snow |
|---|---|---|---|---|---|---|---|
| 1777510593 | 21.67° C | 41% | 1012.2 hPa | 0 mm | - | 185 W/m² | - |
| 1777510289 | 21.67° C | 40% | 1012.4 hPa | 0 mm | - | 193 W/m² | - |
| 1777509986 | 22.22° C | 39% | 1012.6 hPa | 0 mm | - | 212 W/m² | - |
| 1777509682 | 22.22° C | 38% | 1012.2 hPa | 0 mm | - | 220 W/m² | - |
| 1777509379 | 22.22° C | 38% | 1012.2 hPa | 0 mm | - | 244 W/m² | - |
| 1777509076 | 22.78° C | 37% | 1012.2 hPa | 0 mm | - | 270 W/m² | - |
| 1777508773 | 22.78° C | 35% | 1012 hPa | 0 mm | - | 284 W/m² | - |
| 1777508470 | 23.33° C | 35% | 1012 hPa | 0 mm | - | 304 W/m² | - |
| 1777508167 | 22.78° C | 35% | 1012.1 hPa | 0 mm | - | 315 W/m² | - |
| 1777507863 | 23.33° C | 35% | 1012.1 hPa | 0 mm | - | 331 W/m² | - |
| 1777507561 | 23.33° C | 34% | 1012 hPa | 0 mm | - | 348 W/m² | - |
| 1777507257 | 23.33° C | 34% | 1012.4 hPa | 0 mm | - | 369 W/m² | - |
| 1777506955 | 23.33° C | 34% | 1012.4 hPa | 0 mm | - | 373 W/m² | - |
| 1777506652 | 23.89° C | 32% | 1012.1 hPa | 0 mm | - | 382 W/m² | - |
| 1777506348 | 23.33° C | 31% | 1012.5 hPa | 0 mm | - | 390 W/m² | - |
| 1777506044 | 23.89° C | 33% | 1012.2 hPa | 0 mm | - | 429 W/m² | - |
| 1777505739 | 23.89° C | 31% | 1012.5 hPa | 0 mm | - | 423 W/m² | - |
| 1777505437 | 23.89° C | 31% | 1012.5 hPa | 0 mm | - | 415 W/m² | - |
| 1777505134 | 23.89° C | 30% | 1012.4 hPa | 0 mm | - | 449 W/m² | - |
| 1777504831 | 23.89° C | 30% | 1012.7 hPa | 0 mm | - | 463 W/m² | - |
| 1777504528 | 24.44° C | 28% | 1012.5 hPa | 0 mm | - | 484 W/m² | - |
| 1777504223 | 24.44° C | 28% | 1012.4 hPa | 0 mm | - | 492 W/m² | - |
| 1777503920 | 24.44° C | 27% | 1012.6 hPa | 0 mm | - | 505 W/m² | - |
| 1777503615 | 25° C | 25% | 1012.9 hPa | 0 mm | - | 522 W/m² | - |
| 1777503313 | 25° C | 21% | 1012.9 hPa | 0 mm | - | 528 W/m² | - |
* Rain latest hour (hover to see other rain measurements)
** Current wind speed in m/s (hover to see current wind gust speed)